This is the latest recevied weather packets stored in our database for station/object IU5GBO-13. If no packets are shown the sender has not sent any weather packets the latest 10 day(s).
| Time | Temp. | Humidity | Pressure | Rain* | Wind** | Luminosity | Snow |
|---|---|---|---|---|---|---|---|
| 1777767976 | 11.67° C | 66% | 1022.5 hPa | - | - | - | - |
| 1777767376 | 11.67° C | 67% | 1022.6 hPa | - | - | - | - |
| 1777766776 | 11.67° C | 65% | 1022.6 hPa | - | - | - | - |
| 1777766176 | 12.22° C | 64% | 1022.7 hPa | - | - | - | - |
| 1777765576 | 12.22° C | 65% | 1022.8 hPa | - | - | - | - |
| 1777764975 | 11.67° C | 65% | 1022.7 hPa | - | - | - | - |
| 1777764375 | 11.67° C | 65% | 1022.7 hPa | - | - | - | - |
| 1777763775 | 11.67° C | 64% | 1022.7 hPa | - | - | - | - |
| 1777763176 | 12.22° C | 63% | 1022.9 hPa | - | - | - | - |
| 1777762576 | 12.22° C | 62% | 1023 hPa | - | - | - | - |
| 1777761976 | 12.78° C | 60% | 1023 hPa | - | - | - | - |
| 1777761376 | 12.78° C | 58% | 1023.1 hPa | - | - | - | - |
| 1777760775 | 12.78° C | 55% | 1023.1 hPa | - | - | - | - |
| 1777760175 | 13.33° C | 53% | 1023.1 hPa | - | - | - | - |
| 1777759576 | 13.33° C | 54% | 1023 hPa | - | - | - | - |
| 1777758976 | 13.33° C | 53% | 1023 hPa | - | - | - | - |
| 1777758375 | 13.89° C | 56% | 1022.9 hPa | - | - | - | - |
| 1777757775 | 13.89° C | 55% | 1022.9 hPa | - | - | - | - |
| 1777757176 | 13.89° C | 55% | 1022.8 hPa | - | - | - | - |
| 1777756576 | 14.44° C | 54% | 1022.8 hPa | - | - | - | - |
| 1777755975 | 14.44° C | 53% | 1022.8 hPa | - | - | - | - |
| 1777755376 | 14.44° C | 53% | 1022.6 hPa | - | - | - | - |
| 1777754776 | 15° C | 51% | 1022.7 hPa | - | - | - | - |
| 1777754175 | 15.56° C | 50% | 1022.7 hPa | - | - | - | - |
| 1777753576 | 15.56° C | 50% | 1022.9 hPa | - | - | - | - |
* Rain since midnight (hover to see other rain measurements)
** Current wind speed in m/s (hover to see current wind gust speed)